This demonstration page uses our WeatherBlox Daily Observations layout. Learn more.

Left ArrowRight Arrow

Hourly Observations for August 16, 2022

Temp ( °F °C ) Dew Point ( °F °C ) Humidity (%) Winds ( mph kmh ) Pressure ( in mb ) Visibility ( mi km ) Precip ( " mm )
12:26 am 00:26 Mostly Cloudy 63 17 61 16 94 94 ESE 14 22 30.05 1018 9 14 0.00 0.00
12:56 am 00:56 Mostly Cloudy 64 17.6 61 15.9 90 90 SE 5 7 30.09 1019 10 16 0.00 0.00
1:56 am 01:56 Cloudy with Heavy Rain 63 17 61 16 94 94 E 7 11 30.08 1019 3 4 0.56 14.22
2:26 am 02:26 Mostly Clear with Light Rain 63 17 59 15 88 88 ESE 7 11 30.07 1018 7 11 0.76 19.30
2:56 am 02:56 Cloudy with Light Rain 62 16.5 59 15 91 91 ENE 6 9 30.07 1018 10 16 0.00 0.00
3:56 am 03:56 Mostly Cloudy with Light Rain 62 16.6 59 15.1 91 91 ENE 6 9 30.09 1019 7 11 0.00 0.00
4:56 am 04:56 Cloudy with Light Rain 62 16.9 60 15.6 92 92 ENE 7 11 30.09 1019 4 6 0.00 0.00
5:56 am 05:56 Cloudy with Drizzle 63 17.2 60 15.7 91 91 E 5 7 30.09 1019 10 16 0.04 1.02
6:47 am 06:47 Cloudy with Light Showers 63 17 61 16 94 94 E 5 7 30.10 1019 10 16 0.00 0.00
6:56 am 06:56 Cloudy with Light Showers 63 17.4 60 15.7 90 90 E 6 9 30.10 1019 8 13 0.01 0.25
7:51 am 07:51 Mostly Cloudy 64 18 61 16 88 88 ENE 8 13 30.10 1019 10 16 0.00 0.00
7:56 am 07:56 Cloudy 64 17.8 61 16.3 91 91 E 6 9 30.10 1019 10 16 0.02 0.51
8:56 am 08:56 Mostly Cloudy 65 18.4 62 16.5 89 89 ENE 7 11 30.11 1020 10 16 0.00 0.00
9:56 am 09:56 Mostly Cloudy 67 19.2 62 16.6 85 85 E 3 6 30.12 1020 10 16 0.00 0.00
10:56 am 10:56 Cloudy 68 20 62 16.8 82 82 E 10 17 30.13 1020 10 16 0.00 0.00
11:56 am 11:56 Cloudy 71 21.8 62 16.9 74 74 E 12 19 30.12 1020 10 16 0.00 0.00
12:56 pm 12:56 Mostly Cloudy 73 22.5 63 17 71 71 E 9 15 30.12 1020 10 16 0.00 0.00
1:56 pm 13:56 Mostly Cloudy 76 24.2 62 16.7 63 63 E 9 15 30.11 1020 10 16 0.00 0.00
2:56 pm 14:56 Mostly Cloudy 78 25.5 62 16.9 59 59 ESE 10 17 30.11 1020 10 16 0.00 0.00
3:56 pm 15:56 Mostly Cloudy 79 26.3 61 15.9 53 53 ENE 7 11 30.11 1020 10 16 0.00 0.00
4:56 pm 16:56 Mostly Cloudy 78 25.7 61 16 55 55 E 8 13 30.11 1020 10 16 0.00 0.00
5:56 pm 17:56 Mostly Cloudy 78 25.4 61 16.2 57 57 E 5 7 30.11 1020 10 16 0.00 0.00
7:56 pm 19:56 Mostly Cloudy 76 24.3 62 16.5 62 62 Calm 30.10 1019 10 16 0.00 0.00
8:56 pm 20:56 Mostly Cloudy 73 22.7 62 16.7 69 69 Calm 30.10 1019 10 16 0.00 0.00
9:56 pm 21:56 Mostly Cloudy 72 22.2 61 16.2 69 69 NE 5 7 30.12 1020 10 16 0.00 0.00
10:56 pm 22:56 Clear 71 21.5 61 16.2 72 72 NNE 5 7 30.13 1020 10 16 0.00 0.00
11:56 pm 23:56 Clear 69 20.7 61 16.1 75 75 NE 5 7 30.14 1021 10 16 0.00 0.00

Powered by AerisWeather